Year,Month,Day,Hour,Minute,Value (Times are PST for temperature in C)
2005,08,16,00,00,16.70
2005,08,16,00,01,16.70
2005,08,16,00,02,16.70
2005,08,16,00,03,16.70
2005,08,16,00,04,16.70
2005,08,16,00,05,16.70
2005,08,16,00,06,16.70
2005,08,16,00,07,16.70
2005,08,16,00,08,16.70
2005,08,16,00,09,16.70
2005,08,16,00,10,16.70
2005,08,16,00,11,16.70
2005,08,16,00,12,16.70
2005,08,16,00,14,16.70
2005,08,16,00,16,16.70
2005,08,16,00,18,16.70
2005,08,16,00,19,16.70
2005,08,16,00,23,16.60
2005,08,16,00,25,16.60
2005,08,16,00,27,16.60
2005,08,16,00,28,16.60
2005,08,16,00,29,16.40
2005,08,16,00,30,16.40
2005,08,16,00,32,16.40
2005,08,16,00,33,16.40
2005,08,16,00,36,16.40
2005,08,16,00,38,16.40
2005,08,16,00,39,16.40
2005,08,16,00,41,16.40
2005,08,16,00,42,16.40
2005,08,16,00,44,16.40
2005,08,16,00,46,16.40
2005,08,16,00,47,16.40
2005,08,16,00,48,16.40
2005,08,16,00,49,16.40
2005,08,16,00,51,16.40
2005,08,16,00,52,16.40
2005,08,16,00,53,16.40
2005,08,16,00,54,16.40
2005,08,16,00,55,16.40
2005,08,16,00,56,16.40
2005,08,16,00,58,16.40
2005,08,16,00,59,16.40
2005,08,16,01,01,16.30
2005,08,16,01,02,16.30
2005,08,16,01,03,16.30
2005,08,16,01,06,16.40
2005,08,16,01,07,16.30
2005,08,16,01,08,16.30
2005,08,16,01,09,16.30
2005,08,16,01,11,16.20
2005,08,16,01,12,16.20
2005,08,16,01,15,16.10
2005,08,16,01,17,16.10
2005,08,16,01,18,16.10
2005,08,16,01,20,16.10
2005,08,16,01,21,16.10
2005,08,16,01,23,16.10
2005,08,16,01,24,16.10
2005,08,16,01,26,16.10
2005,08,16,01,28,15.90
2005,08,16,01,29,15.90
2005,08,16,01,30,15.90
2005,08,16,01,31,15.90
2005,08,16,01,32,15.80
2005,08,16,01,34,15.80
2005,08,16,01,35,15.80
2005,08,16,01,36,15.80
2005,08,16,01,38,15.80
2005,08,16,01,40,15.80
2005,08,16,01,43,15.80
2005,08,16,01,47,15.80
2005,08,16,01,51,15.70
2005,08,16,01,52,15.70
2005,08,16,01,53,15.70
2005,08,16,01,54,15.70
2005,08,16,01,55,15.70
2005,08,16,01,56,15.80
2005,08,16,01,57,15.80
2005,08,16,01,58,15.80
2005,08,16,01,59,15.80
2005,08,16,02,00,15.70
2005,08,16,02,01,15.70
2005,08,16,02,02,15.70
2005,08,16,02,03,15.70
2005,08,16,02,04,15.70
2005,08,16,02,05,15.70
2005,08,16,02,06,15.70
2005,08,16,02,07,15.70
2005,08,16,02,08,15.60
2005,08,16,02,09,15.60
2005,08,16,02,10,15.60
2005,08,16,02,11,15.60
2005,08,16,02,12,15.60
2005,08,16,02,13,15.60
2005,08,16,02,14,15.60
2005,08,16,02,15,15.60
2005,08,16,02,16,15.60
2005,08,16,02,17,15.50
2005,08,16,02,18,15.50
2005,08,16,02,19,15.50
2005,08,16,02,20,15.50
2005,08,16,02,21,15.50
2005,08,16,02,22,15.50
2005,08,16,02,23,15.50
2005,08,16,02,24,15.50
2005,08,16,02,25,15.50
2005,08,16,02,26,15.50
2005,08,16,02,27,15.50
2005,08,16,02,28,15.50
2005,08,16,02,29,15.50
2005,08,16,02,30,15.50
2005,08,16,02,31,15.50
2005,08,16,02,32,15.50
2005,08,16,02,33,15.50
2005,08,16,02,34,15.50
2005,08,16,02,35,15.50
2005,08,16,02,36,15.50
2005,08,16,02,37,15.50
2005,08,16,02,38,15.50
2005,08,16,02,39,15.50
2005,08,16,02,40,15.50
2005,08,16,02,41,15.40
2005,08,16,02,42,15.40
2005,08,16,02,43,15.40
2005,08,16,02,44,15.40
2005,08,16,02,45,15.40
2005,08,16,02,46,15.40
2005,08,16,02,47,15.30
2005,08,16,02,48,15.30
2005,08,16,02,49,15.30
2005,08,16,02,50,15.30
2005,08,16,02,51,15.30
2005,08,16,02,52,15.30
2005,08,16,02,53,15.30
2005,08,16,02,54,15.30
2005,08,16,02,55,15.30
2005,08,16,02,56,15.20
2005,08,16,02,57,15.20
2005,08,16,02,58,15.20
2005,08,16,02,59,15.20
2005,08,16,03,00,15.20
2005,08,16,03,01,15.10
2005,08,16,03,02,15.10
2005,08,16,03,03,15.00
2005,08,16,03,04,15.00
2005,08,16,03,05,15.00
2005,08,16,03,06,15.00
2005,08,16,03,07,14.90
2005,08,16,03,08,14.90
2005,08,16,03,09,14.90
2005,08,16,03,10,14.90
2005,08,16,03,11,14.80
2005,08,16,03,12,14.80
2005,08,16,03,13,14.80
2005,08,16,03,14,14.80
2005,08,16,03,15,14.80
2005,08,16,03,16,14.80
2005,08,16,03,17,14.80
2005,08,16,03,18,14.80
2005,08,16,03,19,14.80
2005,08,16,03,20,14.80
2005,08,16,03,21,14.70
2005,08,16,03,22,14.70
2005,08,16,03,23,14.70
2005,08,16,03,24,14.70
2005,08,16,03,25,14.70
2005,08,16,03,26,14.70
2005,08,16,03,27,14.70
2005,08,16,03,28,14.60
2005,08,16,03,29,14.60
2005,08,16,03,30,14.60
2005,08,16,03,31,14.60
2005,08,16,03,32,14.60
2005,08,16,03,33,14.60
2005,08,16,03,34,14.60
2005,08,16,03,35,14.60
2005,08,16,03,36,14.60
2005,08,16,03,37,14.60
2005,08,16,03,38,14.60
2005,08,16,03,39,14.60
2005,08,16,03,40,14.50
2005,08,16,03,41,14.50
2005,08,16,03,42,14.50
2005,08,16,03,43,14.50
2005,08,16,03,44,14.50
2005,08,16,03,45,14.50
2005,08,16,03,46,14.50
2005,08,16,03,47,14.50
2005,08,16,03,48,14.40
2005,08,16,03,49,14.40
2005,08,16,03,50,14.40
2005,08,16,03,51,14.40
2005,08,16,03,52,14.40
2005,08,16,03,53,14.40
2005,08,16,03,54,14.40
2005,08,16,03,55,14.40
2005,08,16,03,56,14.40
2005,08,16,03,57,14.40
2005,08,16,03,58,14.40
2005,08,16,03,59,14.40
2005,08,16,04,00,14.40
2005,08,16,04,01,14.40
2005,08,16,04,02,14.30
2005,08,16,04,03,14.30
2005,08,16,04,04,14.30
2005,08,16,04,05,14.30
2005,08,16,04,06,14.30
2005,08,16,04,07,14.30
2005,08,16,04,08,14.30
2005,08,16,04,09,14.30
2005,08,16,04,10,14.30
2005,08,16,04,11,14.30
2005,08,16,04,12,14.30
2005,08,16,04,13,14.20
2005,08,16,04,14,14.20
2005,08,16,04,15,14.20
2005,08,16,04,16,14.20
2005,08,16,04,17,14.20
2005,08,16,04,18,14.20
2005,08,16,04,19,14.20
2005,08,16,04,20,14.20
2005,08,16,04,21,14.20
2005,08,16,04,22,14.20
2005,08,16,04,23,14.20
2005,08,16,04,24,14.10
2005,08,16,04,25,14.10
2005,08,16,04,26,14.10
2005,08,16,04,27,14.10
2005,08,16,04,28,14.00
2005,08,16,04,29,14.00
2005,08,16,04,30,14.00
2005,08,16,04,31,14.00
2005,08,16,04,32,14.00
2005,08,16,04,33,14.00
2005,08,16,04,34,13.90
2005,08,16,04,35,13.90
2005,08,16,04,36,13.90
2005,08,16,04,37,13.90
2005,08,16,04,38,13.90
2005,08,16,04,39,13.90
2005,08,16,04,40,13.90
2005,08,16,04,41,13.90
2005,08,16,04,42,13.90
2005,08,16,04,43,13.80
2005,08,16,04,44,13.80
2005,08,16,04,45,13.80
2005,08,16,04,46,13.80
2005,08,16,04,47,13.80
2005,08,16,04,48,13.70
2005,08,16,04,49,13.70
2005,08,16,04,50,13.70
2005,08,16,04,51,13.70
2005,08,16,04,52,13.70
2005,08,16,04,53,13.70
2005,08,16,04,54,13.70
2005,08,16,04,55,13.70
2005,08,16,04,56,13.70
2005,08,16,04,57,13.70
2005,08,16,04,58,13.70
2005,08,16,04,59,13.70
2005,08,16,05,00,13.70
2005,08,16,05,01,13.70
2005,08,16,05,02,13.70
2005,08,16,05,03,13.70
2005,08,16,05,04,13.70
2005,08,16,05,05,13.80
2005,08,16,05,06,13.80
2005,08,16,05,07,13.80
2005,08,16,05,08,13.80
2005,08,16,05,09,13.70
2005,08,16,05,10,13.70
2005,08,16,05,11,13.70
2005,08,16,05,12,13.70
2005,08,16,05,13,13.70
2005,08,16,05,14,13.70
2005,08,16,05,15,13.70
2005,08,16,05,16,13.70
2005,08,16,05,17,13.70
2005,08,16,05,18,13.70
2005,08,16,05,19,13.70
2005,08,16,05,20,13.70
2005,08,16,05,21,13.70
2005,08,16,05,22,13.70
2005,08,16,05,23,13.70
2005,08,16,05,24,13.70
2005,08,16,05,25,13.60
2005,08,16,05,26,13.60
2005,08,16,05,27,13.60
2005,08,16,05,28,13.60
2005,08,16,05,29,13.60
2005,08,16,05,30,13.60
2005,08,16,05,31,13.60
2005,08,16,05,32,13.60
2005,08,16,05,33,13.60
2005,08,16,05,34,13.60
2005,08,16,05,35,13.60
2005,08,16,05,36,13.60
2005,08,16,05,37,13.60
2005,08,16,05,38,13.60
2005,08,16,05,39,13.60
2005,08,16,05,40,13.60
2005,08,16,05,41,13.60
2005,08,16,05,42,13.60
2005,08,16,05,43,13.70
2005,08,16,05,44,13.70
2005,08,16,05,45,13.70
2005,08,16,05,46,13.70
2005,08,16,05,47,13.70
2005,08,16,05,48,13.70
2005,08,16,05,49,13.70
2005,08,16,05,50,13.80
2005,08,16,05,51,13.80
2005,08,16,05,52,13.80
2005,08,16,05,53,13.80
2005,08,16,05,54,13.80
2005,08,16,05,55,13.80
2005,08,16,05,56,13.80
2005,08,16,05,57,13.80
2005,08,16,05,58,13.80
2005,08,16,05,59,13.80
2005,08,16,06,00,13.80
2005,08,16,06,01,13.80
2005,08,16,06,02,13.80
2005,08,16,06,03,13.80
2005,08,16,06,04,13.70
2005,08,16,06,05,13.70
2005,08,16,06,06,13.70
2005,08,16,06,07,13.70
2005,08,16,06,08,13.70
2005,08,16,06,09,13.70
2005,08,16,06,10,13.70
2005,08,16,06,11,13.70
2005,08,16,06,12,13.70
2005,08,16,06,13,13.70
2005,08,16,06,14,13.70
2005,08,16,06,15,13.70
2005,08,16,06,16,13.70
2005,08,16,06,17,13.70
2005,08,16,06,18,13.70
2005,08,16,06,19,13.70
2005,08,16,06,20,13.70
2005,08,16,06,21,13.70
2005,08,16,06,22,13.70
2005,08,16,06,23,13.70
2005,08,16,06,24,13.70
2005,08,16,06,25,13.70
2005,08,16,06,26,13.70
2005,08,16,06,27,13.70
2005,08,16,06,28,13.70
2005,08,16,06,29,13.70
2005,08,16,06,30,13.70
2005,08,16,06,31,13.70
2005,08,16,06,32,13.70
2005,08,16,06,33,13.70
2005,08,16,06,34,13.70
2005,08,16,06,35,13.70
2005,08,16,06,36,13.70
2005,08,16,06,37,13.80
2005,08,16,06,38,13.80
2005,08,16,06,39,13.80
2005,08,16,06,40,13.80
2005,08,16,06,41,13.80
2005,08,16,06,42,13.80
2005,08,16,06,43,13.80
2005,08,16,06,44,13.80
2005,08,16,06,45,13.80
2005,08,16,06,46,13.80
2005,08,16,06,47,13.80
2005,08,16,06,48,13.90
2005,08,16,06,49,13.90
2005,08,16,06,50,14.00
2005,08,16,06,51,14.00
2005,08,16,06,52,14.10
2005,08,16,06,53,14.10
2005,08,16,06,54,14.20
2005,08,16,06,55,14.20
2005,08,16,06,56,14.30
2005,08,16,06,57,14.40
2005,08,16,06,58,14.50
2005,08,16,06,59,14.50
2005,08,16,07,00,14.60
2005,08,16,07,01,14.60
2005,08,16,07,02,14.70
2005,08,16,07,03,14.70
2005,08,16,07,04,14.80
2005,08,16,07,05,14.80
2005,08,16,07,06,14.80
2005,08,16,07,07,14.80
2005,08,16,07,08,14.80
2005,08,16,07,09,14.80
2005,08,16,07,10,14.80
2005,08,16,07,11,14.80
2005,08,16,07,12,14.70
2005,08,16,07,13,14.70
2005,08,16,07,14,14.60
2005,08,16,07,15,14.60
2005,08,16,07,16,14.60
2005,08,16,07,17,14.50
2005,08,16,07,18,14.50
2005,08,16,07,19,14.50
2005,08,16,07,20,14.50
2005,08,16,07,21,14.50
2005,08,16,07,22,14.60
2005,08,16,07,23,14.60
2005,08,16,07,24,14.60
2005,08,16,07,25,14.60
2005,08,16,07,26,14.70
2005,08,16,07,27,14.70
2005,08,16,07,28,14.70
2005,08,16,07,29,14.70
2005,08,16,07,30,14.70
2005,08,16,07,31,14.80
2005,08,16,07,32,14.80
2005,08,16,07,33,14.80
2005,08,16,07,34,14.80
2005,08,16,07,35,14.90
2005,08,16,07,36,15.00
2005,08,16,07,37,15.00
2005,08,16,07,38,15.10
2005,08,16,07,39,15.10
2005,08,16,07,40,15.10
2005,08,16,07,41,15.10
2005,08,16,07,42,15.10
2005,08,16,07,43,15.10
2005,08,16,07,44,15.10
2005,08,16,07,45,15.00
2005,08,16,07,46,15.00
2005,08,16,07,47,15.00
2005,08,16,07,48,15.00
2005,08,16,07,49,14.90
2005,08,16,07,50,14.90
2005,08,16,07,51,15.00
2005,08,16,07,52,15.00
2005,08,16,07,53,15.00
2005,08,16,07,54,15.00
2005,08,16,07,55,15.00
2005,08,16,07,56,15.00
2005,08,16,07,57,15.00
2005,08,16,07,58,15.00
2005,08,16,07,59,15.10
2005,08,16,08,00,15.10
2005,08,16,08,01,15.20
2005,08,16,08,02,15.20
2005,08,16,08,03,15.30
2005,08,16,08,04,15.30
2005,08,16,08,05,15.30
2005,08,16,08,06,15.30
2005,08,16,08,07,15.30
2005,08,16,08,08,15.30
2005,08,16,08,09,15.30
2005,08,16,08,10,15.30
2005,08,16,08,11,15.40
2005,08,16,08,12,15.40
2005,08,16,08,13,15.50
2005,08,16,08,14,15.50
2005,08,16,08,15,15.50
2005,08,16,08,16,15.50
2005,08,16,08,17,15.60
2005,08,16,08,18,15.60
2005,08,16,08,19,15.60
2005,08,16,08,20,15.60
2005,08,16,08,21,15.60
2005,08,16,08,22,15.60
2005,08,16,08,23,15.70
2005,08,16,08,24,15.80
2005,08,16,08,25,15.80
2005,08,16,08,26,15.80
2005,08,16,08,27,15.80
2005,08,16,08,28,15.80
2005,08,16,08,29,15.90
2005,08,16,08,30,16.00
2005,08,16,08,31,16.10
2005,08,16,08,32,16.20
2005,08,16,08,33,16.30
2005,08,16,08,34,16.40
2005,08,16,08,35,16.40
2005,08,16,08,36,16.50
2005,08,16,08,37,16.60
2005,08,16,08,38,16.60
2005,08,16,08,39,16.60
2005,08,16,08,40,16.60
2005,08,16,08,41,16.70
2005,08,16,08,42,16.80
2005,08,16,08,43,16.90
2005,08,16,08,44,17.00
2005,08,16,08,45,17.10
2005,08,16,08,46,17.20
2005,08,16,08,47,17.20
2005,08,16,08,48,17.10
2005,08,16,08,49,17.10
2005,08,16,08,50,17.10
2005,08,16,08,51,17.20
2005,08,16,08,52,17.30
2005,08,16,08,53,17.40
2005,08,16,08,54,17.50
2005,08,16,08,55,17.50
2005,08,16,08,56,17.60
2005,08,16,08,57,17.60
2005,08,16,08,58,17.70
2005,08,16,08,59,17.70
2005,08,16,09,00,17.70
2005,08,16,09,01,17.70
2005,08,16,09,02,17.80
2005,08,16,09,03,17.90
2005,08,16,09,04,17.90
2005,08,16,09,05,17.90
2005,08,16,09,06,17.80
2005,08,16,09,07,17.80
2005,08,16,09,08,17.80
2005,08,16,09,09,17.80
2005,08,16,09,10,17.70
2005,08,16,09,11,17.70
2005,08,16,09,12,17.60
2005,08,16,09,13,17.40
2005,08,16,09,14,17.20
2005,08,16,09,15,17.20
2005,08,16,09,16,17.20
2005,08,16,09,17,17.10
2005,08,16,09,18,17.10
2005,08,16,09,19,17.10
2005,08,16,09,20,17.10
2005,08,16,09,21,17.00
2005,08,16,09,22,16.90
2005,08,16,09,23,16.90
2005,08,16,09,24,16.90
2005,08,16,09,25,16.80
2005,08,16,09,26,16.90
2005,08,16,09,27,16.90
2005,08,16,09,28,17.00
2005,08,16,09,29,17.10
2005,08,16,09,30,17.30
2005,08,16,09,31,17.30
2005,08,16,09,32,17.40
2005,08,16,09,33,17.40
2005,08,16,09,34,17.30
2005,08,16,09,35,17.20
2005,08,16,09,36,17.10
2005,08,16,09,37,17.00
2005,08,16,09,38,17.10
2005,08,16,09,39,17.20
2005,08,16,09,40,17.20
2005,08,16,09,41,17.10
2005,08,16,09,42,16.90
2005,08,16,09,43,16.90
2005,08,16,09,44,16.80
2005,08,16,09,45,16.80
2005,08,16,09,46,16.80
2005,08,16,09,47,16.90
2005,08,16,09,48,17.00
2005,08,16,09,49,17.00
2005,08,16,09,50,16.90
2005,08,16,09,51,16.80
2005,08,16,09,52,16.80
2005,08,16,09,53,16.70
2005,08,16,09,54,16.70
2005,08,16,09,55,16.50
2005,08,16,09,56,16.40
2005,08,16,09,57,16.40
2005,08,16,09,58,16.50
2005,08,16,09,59,16.60
2005,08,16,10,00,16.70
2005,08,16,10,01,16.70
2005,08,16,10,02,16.90
2005,08,16,10,03,17.00
2005,08,16,10,04,17.00
2005,08,16,10,05,16.90
2005,08,16,10,06,16.90
2005,08,16,10,07,16.90
2005,08,16,10,08,16.80
2005,08,16,10,09,16.80
2005,08,16,10,10,16.80
2005,08,16,10,11,16.70
2005,08,16,10,12,16.70
2005,08,16,10,13,16.60
2005,08,16,10,14,16.50
2005,08,16,10,15,16.50
2005,08,16,10,16,16.40
2005,08,16,10,17,16.40
2005,08,16,10,18,16.40
2005,08,16,10,19,16.40
2005,08,16,10,20,16.30
2005,08,16,10,21,16.30
2005,08,16,10,22,16.30
2005,08,16,10,23,16.40
2005,08,16,10,24,16.40
2005,08,16,10,25,16.50
2005,08,16,10,26,16.60
2005,08,16,10,27,16.70
2005,08,16,10,28,16.80
2005,08,16,10,29,17.00
2005,08,16,10,30,16.90
2005,08,16,10,31,17.00
2005,08,16,10,32,17.00
2005,08,16,10,33,17.00
2005,08,16,10,34,17.10
2005,08,16,10,35,17.20
2005,08,16,10,36,17.20
2005,08,16,10,37,17.10
2005,08,16,10,38,16.90
2005,08,16,10,39,16.70
2005,08,16,10,40,16.60
2005,08,16,10,41,16.60
2005,08,16,10,42,16.70
2005,08,16,10,43,16.70
2005,08,16,10,44,16.70
2005,08,16,10,45,16.70
2005,08,16,10,46,16.80
2005,08,16,10,47,16.80
2005,08,16,10,48,16.80
2005,08,16,10,49,16.70
2005,08,16,10,50,16.70
2005,08,16,10,51,16.60
2005,08,16,10,52,16.50
2005,08,16,10,53,16.40
2005,08,16,10,54,16.30
2005,08,16,10,55,16.10
2005,08,16,10,56,16.10
2005,08,16,10,57,16.20
2005,08,16,10,58,16.20
2005,08,16,10,59,16.20
2005,08,16,11,00,16.20
2005,08,16,11,01,16.20
2005,08,16,11,02,16.30
2005,08,16,11,03,16.40
2005,08,16,11,04,16.40
2005,08,16,11,05,16.50
2005,08,16,11,06,16.60
2005,08,16,11,07,16.70
2005,08,16,11,08,16.80
2005,08,16,11,09,16.90
2005,08,16,11,10,16.90
2005,08,16,11,11,16.80
2005,08,16,11,12,16.70
2005,08,16,11,13,16.60
2005,08,16,11,14,16.40
2005,08,16,11,15,16.50
2005,08,16,11,16,16.40
2005,08,16,11,17,16.30
2005,08,16,11,18,16.20
2005,08,16,11,19,16.20
2005,08,16,11,20,16.20
2005,08,16,11,21,16.30
2005,08,16,11,22,16.40
2005,08,16,11,23,16.40
2005,08,16,11,24,16.50
2005,08,16,11,25,16.60
2005,08,16,11,26,16.70
2005,08,16,11,27,16.70
2005,08,16,11,28,16.70
2005,08,16,11,29,16.70
2005,08,16,11,30,16.80
2005,08,16,11,31,16.80
2005,08,16,11,32,16.70
2005,08,16,11,33,16.60
2005,08,16,11,34,16.50
2005,08,16,11,35,16.50
2005,08,16,11,36,16.60
2005,08,16,11,37,16.80
2005,08,16,11,38,16.90
2005,08,16,11,39,16.90
2005,08,16,11,40,17.00
2005,08,16,11,41,17.10
2005,08,16,11,42,17.10
2005,08,16,11,43,17.20
2005,08,16,11,44,17.20
2005,08,16,11,45,17.30
2005,08,16,11,46,17.30
2005,08,16,11,47,17.30
2005,08,16,11,48,17.40
2005,08,16,11,49,17.50
2005,08,16,11,50,17.50
2005,08,16,11,51,17.40
2005,08,16,11,52,17.20
2005,08,16,11,53,16.90
2005,08,16,11,54,16.80
2005,08,16,11,55,16.80
2005,08,16,11,56,16.80
2005,08,16,11,57,17.00
2005,08,16,11,58,17.10
2005,08,16,11,59,17.10
2005,08,16,12,00,17.00
2005,08,16,12,01,17.00
2005,08,16,12,02,17.10
2005,08,16,12,03,17.00
2005,08,16,12,04,17.10
2005,08,16,12,05,17.10
2005,08,16,12,06,17.00
2005,08,16,12,07,17.00
2005,08,16,12,08,16.90
2005,08,16,12,09,17.00
2005,08,16,12,10,17.00
2005,08,16,12,11,17.00
2005,08,16,12,12,17.00
2005,08,16,12,13,17.00
2005,08,16,12,14,17.00
2005,08,16,12,15,16.90
2005,08,16,12,16,16.80
2005,08,16,12,17,16.80
2005,08,16,12,18,16.90
2005,08,16,12,19,16.90
2005,08,16,12,20,16.90
2005,08,16,12,21,16.70
2005,08,16,12,22,16.70
2005,08,16,12,23,16.60
2005,08,16,12,24,16.60
2005,08,16,12,25,16.40
2005,08,16,12,26,16.40
